Location: Kaiser
(34.0939°N, 117.4889°W)
Time: 02:45:35
(UTC+00:00)

Cosmos 2322 Rocket - Pass Details

Date: 29 October 2020
Orbit: 832 x 851 km, 71.0° (Epoch: 26 November)

Event Time Altitude Azimuth Distance (km) Brightness Sun altitude
Rises 13:24:34 0° 347° (NNW) 3,412 5.1 -9.5°
Reaches altitude 10° 13:27:11 10° 355° (N) 2,470 4.5 -9.0°
Maximum altitude 13:32:29 39° 64° (ENE) 1,235 3.6 -7.9°
Drops below altitude 10° 13:37:43 10° 133° (SE) 2,446 5.7 -6.8°
Sets 13:40:17 0° 140° (SE) 3,374 6.3 -6.3°
